Theta_e
313 322 321 321 321 319 324 328 325 321 326 340 338 343 348 353 361 361 356 356 351 344 346 345 342 339 336 335 333 329 330 337 343 345 347 346 343 341 337 333 335 336 340 341 342 343 342 339 333
313 322 319 315 321 323 323 322 323 322 334 337 341 341 345 355 354 357 356 356 351 347 345 345 343 340 337 335 334 329 328 334 339 342 343 343 342 339 333 332 335 339 340 337 337 338 332 330 326
320 322 316 317 317 324 323 322 321 319 321 330 338 336 342 352 353 355 355 354 353 352 344 345 343 341 338 336 335 330 327 331 336 338 339 339 336 333 330 333 337 339 339 337 336 336 331 324 323
319 314 313 319 323 322 322 320 318 318 322 332 335 339 337 339 349 355 356 355 350 346 344 345 344 342 340 337 336 333 328 331 334 334 334 334 332 329 330 334 336 339 340 340 336 335 335 325 323
316 312 317 319 321 320 319 317 315 325 333 332 334 340 339 342 356 356 355 354 347 345 345 345 344 342 341 340 337 335 330 330 332 330 331 332 331 330 331 334 336 337 337 337 339 337 330 331 324
315 314 319 322 321 321 317 315 316 316 317 323 332 327 326 325 357 356 355 350 347 346 346 346 345 343 342 341 339 337 333 329 332 330 329 331 332 332 332 333 335 335 336 336 339 338 331 329 326
315 316 320 320 322 320 319 313 316 316 317 318 322 326 322 318 320 358 355 351 348 347 347 346 344 343 343 342 341 338 336 331 331 332 329 328 331 334 333 336 340 340 341 341 340 335 329 326 326
310 313 324 320 319 320 318 316 315 315 317 314 316 320 320 318 320 358 356 353 351 348 347 347 344 343 343 342 342 341 338 334 331 332 332 329 329 332 335 339 342 343 343 342 340 336 333 328 326
310 314 319 317 316 319 315 316 315 314 316 315 315 316 316 317 344 359 358 355 354 352 350 349 348 345 344 341 342 343 341 338 334 334 334 333 330 330 333 337 340 343 343 342 340 338 336 332 329
312 312 315 315 315 316 315 315 316 316 315 315 315 314 314 316 346 356 356 357 357 357 356 352 349 348 346 346 343 347 344 342 339 337 338 338 335 333 331 332 336 338 341 340 339 338 337 334 331
310 314 313 314 314 315 315 315 314 315 316 315 315 314 313 315 314 318 336 349 350 353 358 357 352 349 348 345 345 347 346 348 343 341 340 341 340 338 336 335 334 335 337 339 339 338 338 335 334
313 312 312 313 314 313 314 314 315 314 314 314 312 312 312 313 312 311 317 318 318 334 336 351 356 353 349 347 344 343 352 346 343 342 342 347 347 343 341 338 337 335 335 336 337 338 336 337 335
312 313 313 312 312 312 313 314 313 313 312 310 312 312 312 311 310 315 314 315 316 322 339 348 355 356 352 347 345 344 345 345 344 343 342 344 347 344 342 341 340 338 337 336 337 338 336 335 335
312 312 311 311 312 311 312 313 313 313 312 312 312 312 311 310 310 313 314 315 316 319 330 348 355 356 354 351 348 345 343 342 341 341 339 339 339 338 340 341 342 342 341 341 340 339 338 335 335
312 313 311 312 309 313 310 313 312 311 311 312 311 310 311 311 313 311 313 313 315 320 326 337 348 355 356 354 350 346 345 344 345 344 344 343 343 343 344 344 344 343 342 340 342 341 342 341 341
311 309 312 311 311 312 312 312 312 311 312 313 313 313 312 311 311 314 315 316 315 316 319 337 349 353 353 351 348 346 347 347 347 347 346 346 346 346 346 346 346 345 345 344 343 342 343 343 343
307 312 312 311 311 313 312 313 313 311 311 312 312 311 311 310 311 314 315 316 315 315 318 332 346 351 352 350 348 347 347 348 346 345 343 336 335 334 336 341 342 344 345 345 344 344 343 342 343
312 312 311 312 311 313 314 314 312 310 310 311 310 310 310 310 311 317 319 318 314 315 317 328 341 346 350 349 350 350 343 330 323 324 324 325 325 326 327 329 332 337 343 344 344 343 343 343 343
311 312 312 313 313 313 314 311 311 310 313 313 312 310 310 314 315 319 322 320 317 316 319 321 323 326 329 327 323 321 323 323 325 325 324 325 324 324 326 328 329 331 336 336 342 343 343 343 343
313 314 314 313 313 314 313 312 312 313 316 314 314 313 315 317 316 316 319 322 323 323 323 324 323 323 323 322 323 324 324 324 323 323 322 321 318 318 319 324 328 332 335 337 342 342 342 342 343
315 315 314 314 313 312 312 311 312 317 316 315 314 314 314 314 315 315 317 322 324 324 325 325 326 325 325 325 324 323 322 321 320 320 319 318 317 316 315 316 321 330 335 340 339 341 341 343 342
316 314 314 315 313 310 312 309 312 315 319 316 314 313 312 313 313 313 317 318 323 322 322 323 322 321 320 321 321 321 321 321 321 321 321 320 318 317 316 316 321 326 333 339 340 342 340 340 341
314 314 314 314 313 312 312 313 312 314 319 319 317 315 313 312 311 311 311 314 317 317 317 318 317 316 314 314 314 314 314 315 317 319 319 319 319 318 317 316 321 322 327 333 336 340 339 335 338
313 314 308 308 309 311 310 314 313 316 319 318 318 316 314 312 311 311 312 313 313 313 314 313 313 313 313 313 313 313 312 312 312 312 312 313 314 316 318 318 317 319 326 329 332 332 335 338 339
311 310 311 306 313 313 311 315 313 311 316 317 316 315 313 312 310 310 311 311 312 312 313 313 313 312 312 312 312 312 311 311 311 311 310 311 311 312 313 316 317 318 321 327 329 331 331 334 336
312 311 311 311 312 313 314 317 315 312 316 317 315 313 313 312 309 310 310 309 310 311 311 312 312 311 311 310 310 310 310 309 309 309 309 309 310 311 312 312 314 317 321 322 322 328 332 332 334
314 314 311 314 313 315 314 313 313 318 319 318 316 314 315 314 310 310 309 308 309 310 310 311 311 310 310 310 310 309 309 308 308 308 308 309 309 310 311 311 312 315 321 320 319 325 330 333 332
313 311 314 310 317 320 316 315 316 320 319 316 316 315 314 312 312 311 307 308 309 309 310 310 310 310 310 310 310 309 308 308 307 307 306 307 308 310 311 311 311 313 318 319 319 322 327 332 334
309 310 310 310 311 315 317 315 311 313 317 316 314 313 311 309 310 306 306 308 308 308 309 309 309 309 309 309 308 308 308 307 306 305 305 306 308 309 310 310 311 316 319 320 323 324 329 331 333
310 311 309 308 311 309 310 316 312 312 312 312 310 310 308 308 306 306 306 307 307 308 308 308 309 309 309 308 308 307 307 306 304 304 304 306 307 309 309 310 312 320 323 323 327 329 329 329 326
Wind_Speed
11 5 7 3 4 5 3 1 4 10 9 4 1 3 5 3 2 2 1 18 15 27 27 25 22 20 18 16 15 15 18 21 22 23 24 23 22 22 22 22 23 22 19 16 14 13 13 12 12
8 3 2 2 4 4 5 4 5 4 3 2 4 5 6 2 1 1 2 14 13 29 27 26 23 20 18 16 15 15 17 19 21 22 22 21 21 21 21 22 22 20 17 14 14 13 13 12 12
3 2 3 4 3 2 3 4 7 7 6 4 3 5 1 2 1 3 2 15 14 31 27 25 24 21 19 17 15 14 16 18 19 19 20 20 20 20 21 22 20 17 14 13 13 13 11 12 13
1 5 4 4 2 2 4 5 4 5 4 5 3 2 2 3 4 1 9 17 21 27 26 25 24 22 20 18 16 15 15 17 17 18 19 19 19 19 20 19 18 15 13 12 10 10 11 11 13
4 3 4 3 3 4 4 7 7 5 1 4 1 1 2 4 3 6 11 16 26 25 24 24 23 22 20 19 17 16 15 16 16 16 17 18 18 18 18 17 16 14 12 11 10 9 9 11 12
4 3 4 1 4 4 5 4 5 5 6 2 5 3 1 2 2 8 12 16 23 23 23 22 21 20 19 19 18 16 15 15 15 16 16 16 17 16 16 15 13 12 11 10 9 9 9 10 11
5 4 5 4 3 3 4 8 3 2 3 4 1 3 1 4 8 6 9 13 18 21 21 21 21 20 19 17 17 17 16 15 15 15 15 15 15 15 14 13 12 11 10 9 9 9 9 10 12
4 4 6 4 4 4 3 4 2 6 4 4 2 4 2 5 6 10 8 11 12 17 20 20 20 20 18 18 18 17 16 16 16 15 14 14 15 15 14 13 11 10 9 9 10 10 10 10 12
3 3 3 6 6 3 2 4 1 2 2 4 3 3 1 2 3 13 9 9 11 14 17 20 21 19 19 19 17 17 16 15 15 14 14 14 14 15 15 15 13 13 11 11 11 12 12 12 12
4 3 5 4 5 1 1 1 2 1 3 2 3 5 3 5 9 12 8 10 12 14 17 20 22 21 19 17 17 16 16 15 15 14 14 13 13 14 15 16 16 16 15 15 14 14 14 14 15
1 4 4 3 3 1 3 3 2 2 2 5 5 3 6 2 6 8 9 10 11 14 19 20 22 23 21 19 17 15 16 14 14 14 14 13 14 15 16 17 19 20 19 19 18 18 18 18 18
0 5 3 4 5 4 3 2 1 3 7 3 5 4 3 4 6 9 10 10 7 8 9 17 22 23 22 19 17 17 16 18 16 17 15 14 15 15 15 18 21 21 22 22 22 23 22 22 22
1 3 4 4 3 3 1 5 5 6 8 7 6 7 8 7 8 7 8 9 7 6 8 12 18 22 22 21 19 19 19 19 18 15 15 16 16 17 16 20 21 22 22 24 24 26 26 26 26
2 4 7 5 3 3 5 4 4 3 5 6 6 9 9 7 8 8 9 10 9 6 8 8 12 16 18 21 21 20 19 17 17 15 14 14 16 18 19 22 23 23 24 25 26 28 30 29 29
1 4 6 5 6 3 4 2 7 4 6 7 10 7 7 6 6 11 12 12 10 11 10 12 12 13 15 16 17 15 14 14 13 13 13 14 16 16 17 20 23 25 22 24 27 30 30 32 31
4 5 2 4 9 4 4 6 3 3 7 10 9 7 8 9 7 15 17 16 11 10 11 11 14 15 13 13 14 13 12 11 10 10 11 13 14 15 18 22 24 24 24 24 26 29 29 30 33
6 1 1 3 3 4 5 6 5 9 9 10 9 9 7 8 8 13 14 15 13 12 13 14 14 17 17 15 13 10 8 8 6 5 4 6 8 11 16 20 23 25 25 26 26 29 29 28 31
3 0 2 1 6 6 3 6 10 9 7 8 9 9 8 8 8 17 15 11 9 7 11 12 9 10 12 11 6 5 6 7 7 4 4 6 6 7 11 15 19 22 27 29 30 30 28 29 28
3 2 2 2 1 5 4 7 10 9 7 9 10 8 7 6 7 15 17 13 9 8 9 11 14 13 14 16 15 13 9 7 5 5 6 8 10 12 14 15 18 21 25 30 31 31 26 26 28
2 2 3 4 3 1 4 9 4 5 4 5 6 8 8 4 8 12 22 26 24 22 21 20 20 16 13 12 11 7 5 3 3 6 8 11 14 16 17 19 21 22 25 27 28 28 26 25 25
1 3 1 4 5 2 5 5 5 2 6 8 7 5 6 6 7 8 13 20 22 22 19 19 17 16 14 10 8 7 5 7 9 11 13 15 17 18 19 21 23 25 25 25 28 27 26 23 22
1 3 1 3 4 2 3 5 4 1 2 6 7 7 6 7 7 6 9 16 19 17 17 18 17 16 15 13 13 13 10 7 8 12 12 13 15 17 21 22 24 26 24 21 24 28 26 23 20
3 2 2 2 2 2 3 2 7 2 5 2 2 3 5 5 7 7 8 16 16 15 15 15 14 14 14 14 13 12 12 11 13 14 16 17 19 19 20 21 23 27 27 24 21 24 27 26 20
1 1 5 4 3 1 4 4 5 4 7 5 3 3 5 5 5 6 9 10 12 10 9 8 8 9 9 10 11 10 9 10 13 16 18 20 22 23 22 22 23 25 26 25 23 20 22 23 23
8 6 4 5 4 5 3 2 8 6 6 7 9 8 6 5 6 5 4 4 5 5 4 4 4 6 7 7 6 7 8 11 15 18 21 24 26 27 26 25 25 25 25 24 22 23 21 23 28
2 4 4 4 3 5 4 6 6 5 4 5 7 6 5 6 4 4 4 2 1 1 1 1 3 5 6 8 8 9 10 13 16 20 23 27 28 27 28 28 26 26 24 25 24 23 22 23 25
1 1 2 3 2 2 4 7 8 4 5 4 7 6 6 5 5 6 4 0 3 6 6 5 7 11 13 14 14 15 15 17 19 22 24 28 29 28 28 29 28 26 24 22 23 25 24 23 25
2 3 2 3 2 5 5 5 7 4 9 6 6 8 6 4 5 5 2 2 6 8 9 7 10 13 15 16 16 17 18 21 23 25 27 30 30 27 29 30 28 26 25 22 23 25 27 25 26
3 3 5 3 4 4 4 5 6 6 9 7 7 7 8 8 7 5 4 6 9 10 9 9 11 14 19 20 20 22 25 25 26 30 31 30 29 28 30 28 27 26 24 23 23 25 27 25 21
3 4 5 4 4 3 3 15 9 6 6 4 8 9 9 6 6 4 6 10 11 11 11 14 17 20 24 25 22 28 28 27 32 32 31 28 27 28 30 25 26 24 20 21 18 18 14 9 7
Wind_Direction
347 4 137 100 45 62 345 4 284 337 352 342 226 125 147 89 96 224 308 181 172 168 170 170 168 165 162 159 156 157 159 160 159 159 161 161 162 164 164 164 163 163 162 163 163 163 164 165 164
340 121 84 67 74 47 286 274 324 278 267 67 25 8 44 67 70 119 84 172 182 177 173 172 170 169 166 164 162 162 164 165 164 167 169 169 169 169 168 166 164 166 166 167 169 167 167 169 167
79 126 79 85 107 153 235 244 306 291 287 53 40 48 10 344 54 171 268 176 171 174 174 174 173 173 171 169 167 166 167 168 168 170 171 172 171 170 170 168 169 171 171 170 170 171 171 172 170
137 16 37 76 308 253 230 296 261 298 70 75 127 51 343 23 333 198 155 172 169 171 176 177 177 177 176 175 173 171 170 171 170 172 173 172 172 172 172 175 177 181 181 180 181 183 181 180 179
57 53 56 61 295 275 291 307 333 19 82 23 70 45 39 31 81 135 160 174 177 178 180 182 183 184 183 182 180 177 175 175 176 176 176 176 176 178 179 183 187 192 195 193 194 199 200 196 190
49 99 67 227 276 282 297 333 316 16 359 33 62 78 327 349 101 162 174 176 182 182 183 187 190 192 192 190 187 183 181 180 182 183 183 184 185 188 189 191 197 201 202 204 207 213 217 214 208
107 83 162 169 253 309 320 325 44 330 21 11 30 107 272 11 3 178 178 181 189 191 191 193 194 196 199 200 197 192 188 186 188 190 192 192 194 196 198 202 207 209 213 221 229 230 228 224 221
104 94 150 208 195 250 307 354 325 34 353 294 351 17 20 293 341 168 164 180 197 199 200 201 204 201 203 204 204 201 198 194 194 196 198 201 202 204 209 212 217 224 231 240 247 248 247 244 236
124 72 205 181 168 232 314 38 331 306 24 25 37 84 298 336 133 155 157 176 198 207 212 212 212 208 206 206 206 206 207 206 202 201 203 205 212 216 217 224 227 232 239 248 255 257 257 259 256
88 133 215 205 172 187 276 198 265 16 24 344 338 333 50 108 132 146 171 198 209 217 220 221 217 214 209 206 206 206 206 210 210 210 211 214 220 225 231 235 238 239 244 250 254 258 260 262 261
156 201 198 237 208 229 287 303 207 142 291 207 228 229 300 323 141 157 177 189 211 230 232 226 220 218 215 208 202 209 207 210 215 218 220 224 230 233 236 243 245 246 244 248 253 256 257 259 261
283 253 223 263 190 151 221 208 231 204 230 198 239 235 257 253 254 183 191 200 219 227 228 225 221 219 216 210 211 213 211 212 222 221 224 226 237 244 245 247 252 252 252 253 254 256 257 258 261
147 286 301 295 308 235 302 230 219 244 260 295 309 294 273 253 244 247 202 214 210 232 229 218 217 217 212 211 212 215 219 218 223 229 233 234 242 253 260 263 263 266 262 260 262 265 265 260 260
246 278 296 307 305 231 181 245 162 274 352 317 318 314 308 271 228 243 236 223 207 216 212 216 216 214 214 214 216 219 222 228 232 242 247 250 256 268 269 271 273 273 273 272 271 270 275 277 270
290 310 340 21 329 36 162 227 235 359 335 0 356 333 330 305 293 268 274 279 229 196 189 197 203 202 207 217 220 223 230 236 243 252 260 261 266 275 280 279 279 276 273 274 273 273 275 277 276
49 49 62 345 8 356 77 269 266 320 25 333 322 317 319 302 298 294 284 276 265 232 226 204 202 203 208 213 218 224 230 244 261 264 269 273 279 285 288 286 286 289 277 276 276 274 272 273 277
9 165 256 344 64 345 40 278 283 326 5 313 307 301 294 303 310 307 294 286 265 243 220 196 196 197 200 205 215 229 245 246 251 279 299 325 318 312 304 294 293 291 283 273 272 271 268 263 269
209 10 274 184 330 360 324 274 305 317 341 300 294 302 317 317 309 332 337 319 264 210 185 189 172 176 185 189 184 156 121 103 96 69 29 359 339 315 301 301 300 293 283 280 272 266 260 259 260
130 122 317 312 149 3 309 296 303 329 1 339 323 316 327 18 329 39 49 60 101 132 140 140 132 120 124 120 120 125 127 133 106 68 41 17 1 349 336 316 301 293 286 279 270 260 256 254 256
78 101 314 294 293 5 317 296 304 327 346 351 346 30 61 38 31 32 57 75 79 91 101 107 108 114 118 121 121 112 102 109 74 29 22 10 357 349 340 330 318 299 291 288 271 261 256 256 250
83 140 265 240 336 345 330 326 351 332 11 11 13 46 61 58 46 28 47 65 73 73 78 82 81 81 75 75 81 80 71 29 11 356 355 348 341 339 336 330 317 312 296 282 279 261 249 247 246
315 199 210 277 48 255 44 282 296 234 15 12 8 25 28 41 50 45 49 60 71 73 77 76 74 68 59 52 46 38 37 20 345 339 333 321 319 317 320 321 322 318 311 287 276 269 261 251 246
210 65 24 331 199 83 308 107 270 241 225 226 356 39 74 77 82 73 71 80 81 76 73 75 71 63 50 42 39 33 25 9 344 333 322 315 309 306 303 307 312 314 315 307 293 276 274 271 254
71 38 49 58 93 22 254 154 277 198 201 188 204 201 150 128 112 118 112 107 101 97 90 79 63 53 34 15 8 6 357 341 331 326 323 318 313 310 303 297 301 303 307 308 303 296 284 268 257
52 46 335 345 7 230 312 346 241 246 227 185 188 199 193 163 161 167 138 108 95 77 73 61 28 14 4 359 352 351 347 342 335 329 320 314 311 307 307 304 298 295 299 306 309 296 280 267 256
31 140 155 262 247 268 308 242 252 252 259 183 182 192 202 208 215 207 181 161 140 81 9 318 332 339 340 343 339 337 337 337 330 324 317 310 307 305 298 299 298 294 291 296 304 304 287 274 253
233 228 188 123 20 18 245 298 309 206 235 241 204 201 210 215 222 232 199 92 350 336 323 303 316 322 326 326 327 328 331 332 330 325 320 314 308 307 303 291 297 294 290 295 301 298 298 273 265
166 157 25 10 285 264 276 272 240 252 248 236 232 231 238 327 277 269 225 317 341 325 314 297 303 311 313 311 312 313 318 321 322 322 318 311 307 305 307 294 295 294 286 288 296 295 294 281 273
322 322 58 122 148 213 315 256 222 255 255 233 232 245 266 288 267 220 236 292 309 318 297 293 300 298 305 307 308 312 315 316 318 318 316 308 304 307 308 298 298 294 281 284 293 295 292 285 280
190 191 135 127 260 212 168 270 292 306 321 258 267 274 275 272 213 230 265 297 301 310 303 299 308 308 310 304 304 309 305 310 317 317 310 305 303 307 309 299 299 289 283 294 294 295 296 282 278